Location: Arapaho Elementary School
(32.9607°N, 96.7625°W)
Time: 13:23:19
(UTC+00:00)

Cosmos 1500 Rocket - Pass Details

Date: 12 July 2022
Orbit: 602 x 631 km, 82.5° (Epoch: 07 August)

Event Time Altitude Azimuth Distance (km) Brightness Sun altitude
Exits shadow 08:47:52 36° 321° (NW) 1,011 4.7 -26.3°
Drops below altitude 10° 08:50:56 10° 352° (N) 2,016 6.7 -26.0°
Sets 08:53:16 0° 359° (N) 2,928 7.8 -25.7°
